Time,TemperatureF,DewpointF,PressureIn,WindDirection,WindDirectionDegrees,WindSpeedMPH,WindSpeedGustMPH,Humidity,HourlyPrecipIn,Conditions,Clouds,dailyrainin,SoftwareType,DateUTC
2013-07-26 00:11:00,66.4,59.0,30.03,NE,46,1.0,2.0,78,0.00,,,0.00,weatherlink.com 1.10,2013-07-26 04:11:00,
2013-07-26 00:26:00,66.5,59.0,30.03,ENE,72,2.0,5.0,77,0.00,,,0.00,weatherlink.com 1.10,2013-07-26 04:26:00,
2013-07-26 00:41:00,66.4,59.0,30.03,East,99,0.0,2.0,77,0.00,,,0.00,weatherlink.com 1.10,2013-07-26 04:41:00,
2013-07-26 00:56:00,66.4,59.0,30.03,West,263,0.0,3.0,78,0.00,,,0.00,weatherlink.com 1.10,2013-07-26 04:56:00,
2013-07-26 01:11:00,66.4,59.0,30.02,East,91,0.0,3.0,77,0.00,,,0.00,weatherlink.com 1.10,2013-07-26 05:11:00,
2013-07-26 01:27:00,66.4,59.0,30.01,ESE,104,0.0,2.0,78,0.00,,,0.00,weatherlink.com 1.10,2013-07-26 05:27:00,
2013-07-26 01:42:00,66.3,59.0,30.02,East,96,0.0,6.0,78,0.00,,,0.00,weatherlink.com 1.10,2013-07-26 05:42:00,
2013-07-26 01:57:00,66.4,59.0,30.02,ESE,106,0.0,4.0,78,0.00,,,0.00,weatherlink.com 1.10,2013-07-26 05:57:00,
2013-07-26 02:12:00,66.4,59.0,30.02,SSE,151,0.0,1.0,78,0.00,,,0.00,weatherlink.com 1.10,2013-07-26 06:12:00,
2013-07-26 02:27:00,66.4,59.0,30.01,ESE,103,1.0,4.0,78,0.00,,,0.00,weatherlink.com 1.10,2013-07-26 06:27:00,
2013-07-26 02:42:00,66.4,59.0,30.01,South,181,1.0,6.0,78,0.00,,,0.00,weatherlink.com 1.10,2013-07-26 06:42:00,
2013-07-26 02:57:00,66.3,59.0,30.00,ESE,111,0.0,5.0,78,0.00,,,0.00,weatherlink.com 1.10,2013-07-26 06:57:00,
2013-07-26 03:12:00,66.0,60.0,30.00,ENE,60,0.0,6.0,80,0.00,,,0.00,weatherlink.com 1.10,2013-07-26 07:12:00,
2013-07-26 03:27:00,66.0,60.0,30.00,ESE,109,0.0,5.0,80,0.00,,,0.00,weatherlink.com 1.10,2013-07-26 07:27:00,
2013-07-26 03:42:00,66.0,60.0,30.01,North,8,0.0,1.0,80,0.00,,,0.00,weatherlink.com 1.10,2013-07-26 07:42:00,
2013-07-26 03:57:00,66.2,60.0,30.00,South,181,0.0,2.0,79,0.00,,,0.00,weatherlink.com 1.10,2013-07-26 07:57:00,
2013-07-26 04:12:00,66.3,60.0,30.00,WNW,283,0.0,5.0,80,0.00,,,0.00,weatherlink.com 1.10,2013-07-26 08:12:00,
2013-07-26 04:27:00,66.1,60.0,30.00,WSW,242,0.0,2.0,80,0.00,,,0.00,weatherlink.com 1.10,2013-07-26 08:27:00,
2013-07-26 04:42:00,66.1,60.0,30.00,SE,136,0.0,2.0,81,0.00,,,0.00,weatherlink.com 1.10,2013-07-26 08:42:00,
2013-07-26 04:57:00,66.1,60.0,30.00,East,84,1.0,4.0,80,0.00,,,0.00,weatherlink.com 1.10,2013-07-26 08:57:00,
2013-07-26 05:12:00,66.2,60.0,30.00,North,352,0.0,3.0,80,0.00,,,0.00,weatherlink.com 1.10,2013-07-26 09:12:00,
2013-07-26 05:27:00,66.4,60.0,30.01,ENE,69,0.0,2.0,80,0.00,,,0.00,weatherlink.com 1.10,2013-07-26 09:27:00,
2013-07-26 05:42:00,66.5,60.0,30.01,NNW,335,0.0,1.0,80,0.00,,,0.00,weatherlink.com 1.10,2013-07-26 09:42:00,
2013-07-26 05:57:00,66.5,60.0,30.01,North,5,0.0,2.0,80,0.00,,,0.00,weatherlink.com 1.10,2013-07-26 09:57:00,
2013-07-26 06:12:00,66.4,60.0,30.01,NNW,341,0.0,1.0,81,0.00,,,0.00,weatherlink.com 1.10,2013-07-26 10:12:00,
2013-07-26 06:27:00,66.4,60.0,30.01,North,349,0.0,2.0,81,0.00,,,0.00,weatherlink.com 1.10,2013-07-26 10:27:00,
2013-07-26 06:42:00,66.5,61.0,30.02,NW,319,0.0,1.0,81,0.00,,,0.00,weatherlink.com 1.10,2013-07-26 10:42:00,
2013-07-26 06:57:00,66.5,61.0,30.01,NNW,340,0.0,1.0,81,0.00,,,0.00,weatherlink.com 1.10,2013-07-26 10:57:00,
2013-07-26 07:12:00,66.6,61.0,30.01,NE,43,1.0,1.0,82,0.00,,,0.00,weatherlink.com 1.10,2013-07-26 11:12:00,
2013-07-26 07:27:00,66.8,61.0,30.02,North,1,0.0,1.0,81,0.00,,,0.00,weatherlink.com 1.10,2013-07-26 11:27:00,
2013-07-26 07:42:00,66.9,61.0,30.01,North,8,1.0,2.0,81,0.00,,,0.00,weatherlink.com 1.10,2013-07-26 11:42:00,
2013-07-26 07:57:00,67.1,61.0,30.02,North,11,0.0,1.0,81,0.00,,,0.00,weatherlink.com 1.10,2013-07-26 11:57:00,
2013-07-26 08:12:00,67.3,61.0,30.02,North,6,2.0,2.0,79,0.00,,,0.00,weatherlink.com 1.10,2013-07-26 12:12:00,
2013-07-26 08:27:00,67.5,61.0,30.03,NNE,19,0.0,1.0,79,0.00,,,0.00,weatherlink.com 1.10,2013-07-26 12:27:00,
2013-07-26 08:42:00,67.8,61.0,30.03,ESE,107,0.0,4.0,78,0.00,,,0.00,weatherlink.com 1.10,2013-07-26 12:42:00,
2013-07-26 08:57:00,68.4,61.0,30.03,ENE,68,1.0,2.0,78,0.00,,,0.00,weatherlink.com 1.10,2013-07-26 12:57:00,
2013-07-26 09:12:00,69.0,61.0,30.03,SW,218,0.0,3.0,76,0.00,,,0.00,weatherlink.com 1.10,2013-07-26 13:12:00,
2013-07-26 09:27:00,69.4,62.0,30.03,North,350,0.0,2.0,76,0.00,,,0.00,weatherlink.com 1.10,2013-07-26 13:27:00,
2013-07-26 09:42:00,69.6,61.0,30.03,West,261,0.0,3.0,74,0.00,,,0.00,weatherlink.com 1.10,2013-07-26 13:42:00,
2013-07-26 09:57:00,69.9,61.0,30.04,East,95,1.0,4.0,73,0.00,,,0.00,weatherlink.com 1.10,2013-07-26 13:57:00,
2013-07-26 10:12:00,70.4,61.0,30.04,SW,235,1.0,4.0,72,0.00,,,0.00,weatherlink.com 1.10,2013-07-26 14:12:00,
2013-07-26 10:27:00,71.3,61.0,30.04,NW,305,0.0,6.0,71,0.00,,,0.00,weatherlink.com 1.10,2013-07-26 14:27:00,
2013-07-26 10:42:00,71.3,61.0,30.04,NNE,15,0.0,3.0,70,0.00,,,0.00,weatherlink.com 1.10,2013-07-26 14:42:00,
2013-07-26 10:57:00,71.8,61.0,30.04,East,89,0.0,2.0,69,0.00,,,0.00,weatherlink.com 1.10,2013-07-26 14:57:00,
2013-07-26 11:12:00,72.7,62.0,30.04,North,356,1.0,1.0,68,0.00,,,0.00,weatherlink.com 1.10,2013-07-26 15:12:00,
2013-07-26 11:27:00,72.4,62.0,30.04,West,266,1.0,2.0,69,0.00,,,0.00,weatherlink.com 1.10,2013-07-26 15:27:00,
2013-07-26 11:42:00,73.0,62.0,30.04,WSW,240,1.0,1.0,69,0.00,,,0.00,weatherlink.com 1.10,2013-07-26 15:42:00,
2013-07-26 11:57:00,72.7,62.0,30.03,NW,311,0.0,1.0,70,0.00,,,0.00,weatherlink.com 1.10,2013-07-26 15:57:00,
2013-07-26 12:12:00,73.0,63.0,30.03,ENE,70,1.0,2.0,71,0.00,,,0.00,weatherlink.com 1.10,2013-07-26 16:12:00,
2013-07-26 12:27:00,74.3,63.0,30.02,ESE,105,0.0,3.0,69,0.00,,,0.00,weatherlink.com 1.10,2013-07-26 16:27:00,
2013-07-26 12:43:00,75.3,63.0,30.02,NNE,16,0.0,5.0,66,0.00,,,0.00,weatherlink.com 1.10,2013-07-26 16:43:00,
2013-07-26 12:58:00,76.0,62.0,30.02,SSE,155,0.0,4.0,63,0.00,,,0.00,weatherlink.com 1.10,2013-07-26 16:58:00,
2013-07-26 13:13:00,76.8,63.0,30.02,North,9,1.0,3.0,63,0.00,,,0.00,weatherlink.com 1.10,2013-07-26 17:13:00,
2013-07-26 13:28:00,77.4,62.0,30.02,WSW,257,0.0,3.0,59,0.00,,,0.00,weatherlink.com 1.10,2013-07-26 17:28:00,
2013-07-26 13:43:00,77.9,61.0,30.02,NE,49,0.0,2.0,56,0.00,,,0.00,weatherlink.com 1.10,2013-07-26 17:43:00,
2013-07-26 13:59:00,78.0,62.0,30.02,ENE,70,1.0,3.0,58,0.00,,,0.00,weatherlink.com 1.10,2013-07-26 17:59:00,
2013-07-26 14:13:00,78.5,61.0,30.01,West,266,0.0,3.0,55,0.00,,,0.00,weatherlink.com 1.10,2013-07-26 18:13:00,
2013-07-26 14:28:00,78.5,61.0,30.01,WNW,284,0.0,2.0,56,0.00,,,0.00,weatherlink.com 1.10,2013-07-26 18:28:00,
2013-07-26 14:43:00,78.9,62.0,30.01,WSW,249,2.0,2.0,57,0.00,,,0.00,weatherlink.com 1.10,2013-07-26 18:43:00,
2013-07-26 14:58:00,79.7,62.0,30.01,West,269,0.0,4.0,54,0.00,,,0.00,weatherlink.com 1.10,2013-07-26 18:58:00,
2013-07-26 15:13:00,80.0,61.0,30.01,NNW,346,0.0,3.0,53,0.00,,,0.00,weatherlink.com 1.10,2013-07-26 19:13:00,
2013-07-26 15:28:00,81.7,62.0,30.00,NE,50,4.0,4.0,52,0.00,,,0.00,weatherlink.com 1.10,2013-07-26 19:28:00,
2013-07-26 15:43:00,83.5,63.0,30.00,NNE,29,0.0,2.0,51,0.00,,,0.00,weatherlink.com 1.10,2013-07-26 19:43:00,
2013-07-26 15:58:00,82.8,63.0,30.00,North,352,0.0,3.0,52,0.00,,,0.00,weatherlink.com 1.10,2013-07-26 19:58:00,
2013-07-26 16:13:00,83.2,63.0,30.00,SW,218,1.0,2.0,51,0.00,,,0.00,weatherlink.com 1.10,2013-07-26 20:13:00,
2013-07-26 16:28:00,81.2,63.0,30.00,WSW,255,2.0,2.0,54,0.00,,,0.00,weatherlink.com 1.10,2013-07-26 20:28:00,
2013-07-26 16:43:00,81.7,63.0,30.00,NE,49,0.0,3.0,54,0.00,,,0.00,weatherlink.com 1.10,2013-07-26 20:43:00,
2013-07-26 16:58:00,81.6,64.0,29.99,North,356,0.0,2.0,55,0.00,,,0.00,weatherlink.com 1.10,2013-07-26 20:58:00,
2013-07-26 17:13:00,81.3,64.0,30.00,NNE,19,0.0,3.0,55,0.00,,,0.00,weatherlink.com 1.10,2013-07-26 21:13:00,
2013-07-26 17:28:00,81.4,63.0,29.99,WSW,248,3.0,3.0,53,0.00,,,0.00,weatherlink.com 1.10,2013-07-26 21:28:00,
2013-07-26 17:43:00,80.9,62.0,29.99,WSW,241,3.0,4.0,53,0.00,,,0.00,weatherlink.com 1.10,2013-07-26 21:43:00,
2013-07-26 17:58:00,80.2,61.0,29.99,WSW,246,0.0,2.0,53,0.00,,,0.00,weatherlink.com 1.10,2013-07-26 21:58:00,
2013-07-26 18:13:00,80.5,62.0,30.00,ENE,64,0.0,4.0,53,0.00,,,0.00,weatherlink.com 1.10,2013-07-26 22:13:00,
2013-07-26 18:28:00,80.1,61.0,30.00,WNW,285,0.0,3.0,52,0.00,,,0.00,weatherlink.com 1.10,2013-07-26 22:28:00,
2013-07-26 18:43:00,79.9,61.0,30.00,WNW,293,0.0,3.0,52,0.00,,,0.00,weatherlink.com 1.10,2013-07-26 22:43:00,
2013-07-26 18:58:00,79.7,60.0,30.00,NNE,30,0.0,3.0,52,0.00,,,0.00,weatherlink.com 1.10,2013-07-26 22:58:00,
2013-07-26 19:13:00,80.2,61.0,30.00,WNW,288,0.0,2.0,52,0.00,,,0.00,weatherlink.com 1.10,2013-07-26 23:13:00,
2013-07-26 19:28:00,79.4,62.0,30.00,NNE,22,0.0,2.0,55,0.00,,,0.00,weatherlink.com 1.10,2013-07-26 23:28:00,
2013-07-26 19:43:00,78.6,60.0,30.00,WNW,287,0.0,1.0,53,0.00,,,0.00,weatherlink.com 1.10,2013-07-26 23:43:00,
2013-07-26 19:58:00,77.8,61.0,30.00,WNW,287,0.0,0.0,57,0.00,,,0.00,weatherlink.com 1.10,2013-07-26 23:58:00,
2013-07-26 20:13:00,76.4,61.0,30.00,WNW,287,0.0,0.0,60,0.00,,,0.00,weatherlink.com 1.10,2013-07-27 00:13:00,
2013-07-26 20:28:00,75.1,62.0,30.00,WNW,287,0.0,0.0,63,0.00,,,0.00,weatherlink.com 1.10,2013-07-27 00:28:00,
2013-07-26 20:43:00,73.9,61.0,30.01,WNW,287,0.0,0.0,65,0.00,,,0.00,weatherlink.com 1.10,2013-07-27 00:43:00,
2013-07-26 20:58:00,72.8,62.0,30.01,WNW,287,0.0,0.0,68,0.00,,,0.00,weatherlink.com 1.10,2013-07-27 00:58:00,
2013-07-26 21:13:00,71.9,62.0,30.02,WNW,287,0.0,0.0,70,0.00,,,0.00,weatherlink.com 1.10,2013-07-27 01:13:00,
2013-07-26 21:28:00,71.2,62.0,30.02,WNW,287,0.0,0.0,72,0.00,,,0.00,weatherlink.com 1.10,2013-07-27 01:28:00,
2013-07-26 21:43:00,70.5,61.0,30.02,WNW,287,0.0,0.0,73,0.00,,,0.00,weatherlink.com 1.10,2013-07-27 01:43:00,
2013-07-26 21:58:00,69.7,61.0,30.03,WNW,287,0.0,0.0,74,0.00,,,0.00,weatherlink.com 1.10,2013-07-27 01:58:00,
2013-07-26 22:13:00,69.2,61.0,30.03,WNW,287,0.0,0.0,76,0.00,,,0.00,weatherlink.com 1.10,2013-07-27 02:13:00,
2013-07-26 22:28:00,68.6,61.0,30.03,WNW,288,0.0,0.0,77,0.00,,,0.00,weatherlink.com 1.10,2013-07-27 02:28:00,
2013-07-26 22:43:00,68.3,61.0,30.03,WNW,287,0.0,0.0,78,0.00,,,0.00,weatherlink.com 1.10,2013-07-27 02:43:00,
2013-07-26 22:58:00,67.8,61.0,30.04,WNW,287,0.0,0.0,80,0.00,,,0.00,weatherlink.com 1.10,2013-07-27 02:58:00,
2013-07-26 23:13:00,67.4,61.0,30.04,WNW,286,0.0,0.0,80,0.00,,,0.00,weatherlink.com 1.10,2013-07-27 03:13:00,
2013-07-26 23:28:00,67.1,61.0,30.04,WNW,286,0.0,0.0,81,0.00,,,0.00,weatherlink.com 1.10,2013-07-27 03:28:00,
2013-07-26 23:43:00,66.7,61.0,30.04,WNW,287,0.0,0.0,82,0.00,,,0.00,weatherlink.com 1.10,2013-07-27 03:43:00,
2013-07-26 23:58:00,66.6,61.0,30.04,WNW,286,0.0,0.0,83,0.00,,,0.00,weatherlink.com 1.10,2013-07-27 03:58:00,